Station RKXF1 - Upper Henderson Creek, Rookery Bay Reserve, FL Image indicating link to RSS feed of recent meteorological observations for station RKXF1


Conditions at RKXF1 as of
(7:45 pm EDT)
2345 GMT on 07/22/2024:
     

Click on the graph icon in the table below to see a time series plot of the last five days of that observation.

5-day plot - Wind Direction Wind Direction (WDIR): S ( 180 deg true )
5-day plot - Wind Speed Wind Speed (WSPD): 5.1 kts
5-day plot - Atmospheric Pressure Atmospheric Pressure (PRES):30.06 in
5-day plot - Air Temperature Air Temperature (ATMP): 74.7 °F
5-day plot - Dew Point Dew Point (DEWP): 73.2 °F
5-day plot -  Wind Speed, Wind Gust and Atmospheric Pressure Combined plot of Wind Speed, Gust, and Air Pressure
Previous observations
TIME
(EDT)
5-day plot - Wind Direction
WDIR
 
5-day plot - Wind Speed
WSPD
kts
5-day plot - Wind Gust
GST
kts
5-day plot - Wave Height
WVHT
ft
5-day plot - Dominant Wave Period
DPD
sec
5-day plot - Average Wave Period
APD
sec
5-day plot - Mean Wave Direction
MWD
 
5-day plot - Atmospheric Pressure
PRES
in
5-day plot - Pressure Tendency
PTDY
in
5-day plot - Air Temperature
ATMP
°F
5-day plot - Water Temperature
WTMP
°F
5-day plot - Dew Point
DEWP
°F
5-day plot - Salinity
SAL
psu
5-day plot - Visibility
VIS
nmi
5-day plot - Tide (above MLLW)
TIDE
ft
2024-07-22 07:30 pm SW 6.0-----30.06- 74.8- 73.4---
2024-07-22 07:15 pmWSW 7.0-----30.06- 75.0- 72.9---
2024-07-22 07:00 pm SW 8.9-----30.06+0.00 77.0- 73.6---
2024-07-22 06:45 pm SW 7.0-----30.06- 80.4- 76.3---
2024-07-22 06:30 pm SE 4.1-----30.06- 81.9- 78.4---
2024-07-22 06:15 pm E 2.9-----30.03- 82.0- 78.3---
2024-07-22 06:00 pm E 2.9-----30.03-0.03 82.4- 78.6---
2024-07-22 05:45 pm E 2.9-----30.03- 82.2- 78.4---
2024-07-22 05:30 pmESE 2.9-----30.03- 81.9- 78.4---
2024-07-22 05:15 pm SE 2.9-----30.03- 81.1- 78.3---
2024-07-22 05:00 pm SE 2.9-----30.03-0.06 81.0- 78.1---
2024-07-22 04:45 pmESE 2.9-----30.06- 80.8- 78.3---
2024-07-22 04:30 pm E 1.9-----30.06- 80.8- 78.3---
2024-07-22 04:15 pm E 2.9-----30.06- 80.2- 78.4---
2024-07-22 04:00 pmESE 2.9-----30.06+0.00 79.9- 78.4---
2024-07-22 03:45 pmESE 4.1-----30.06- 79.5- 78.1---
2024-07-22 03:30 pmESE 2.9-----30.06- 79.5- 78.1---
2024-07-22 03:15 pmESE 2.9-----30.06- 79.5- 77.7---
2024-07-22 03:00 pmESE 2.9-----30.06+0.00 79.3- 77.2---
2024-07-22 02:45 pm E 2.9-----30.09- 79.5- 77.0---
2024-07-22 02:30 pm E 5.1-----30.09- 80.2- 76.5---
2024-07-22 02:15 pmENE 5.1-----30.09- 81.5- 77.0---
2024-07-22 02:00 pm E 4.1-----30.09+0.00 82.8- 77.9---
2024-07-22 01:45 pmSSE 5.1-----30.09- 83.5- 78.3---
2024-07-22 01:30 pm S 5.1-----30.09- 84.0- 78.1---
2024-07-22 01:15 pm S 5.1-----30.09- 84.7- 78.1---
2024-07-22 01:00 pmSSW 5.1-----30.06-0.03 84.9- 78.3---
2024-07-22 12:45 pm SW 6.0-----30.06- 84.7- 78.1---
2024-07-22 12:30 pm SW 6.0-----30.06- 86.2- 78.3---
2024-07-22 12:15 pm SW 5.1-----30.06- 88.0- 78.4---
2024-07-22 12:00 pm SW 4.1-----30.06+0.00 90.5- 79.3---
2024-07-22 11:45 am S 4.1-----30.06- 90.7- 79.0---
2024-07-22 11:30 am S 4.1-----30.06- 90.1- 78.4---
2024-07-22 11:15 am S 1.9-----30.09- 88.2- 78.6---
2024-07-22 11:00 am SW 2.9-----30.09+0.03 86.4- 80.1---
2024-07-22 10:45 amSSE 1.9-----30.09- 87.6- 79.7---
2024-07-22 10:30 am SE 2.9-----30.09- 86.7- 80.1---
2024-07-22 10:15 am SE 1.9-----30.09- 84.4- 80.6---
2024-07-22 10:00 amSSE 2.9-----30.09+0.06 82.9- 81.7---
2024-07-22 09:45 amSSE 4.1-----30.06- 81.9- 81.3---
2024-07-22 09:30 amSSE 2.9-----30.06- 81.1- 80.6---
2024-07-22 09:15 am S 2.9-----30.06- 80.2- 79.7---
2024-07-22 09:00 amSSE 2.9-----30.06+0.03 79.9- 79.5---
2024-07-22 08:45 am SE 1.9-----30.06- 79.9- 79.5---
2024-07-22 08:30 am SE 1.9-----30.06- 79.3- 79.0---
2024-07-22 08:15 amESE 1.9-----30.06- 78.8- 78.4---
2024-07-22 08:00 amSSE 1.0-----30.06+0.06 78.3- 77.9---
2024-07-22 07:45 amESE 1.9-----30.06- 77.5- 77.2---
2024-07-22 07:30 amESE 1.0-----30.06- 77.0- 76.6---
2024-07-22 07:15 am E 1.9-----30.03- 76.6- 76.3---
2024-07-22 07:00 am E 2.9-----30.03+0.00 76.3- 75.9---
2024-07-22 06:45 am E 1.9-----30.03- 75.7- 75.2---
2024-07-22 06:30 am E 1.9-----30.03- 76.1- 75.6---
2024-07-22 06:15 am E 1.0-----30.03- 75.9- 75.4---
2024-07-22 06:00 am- 0.0-----30.03+0.00 76.3- 75.7---
2024-07-22 05:45 am SE 1.0-----30.00- 76.6- 76.1---
2024-07-22 05:30 amESE 1.9-----30.00- 76.8- 76.5---
2024-07-22 05:15 amESE 1.9-----30.00- 76.8- 76.5---
2024-07-22 05:00 am SE 1.9-----30.00-0.06 76.8- 76.3---
2024-07-22 04:45 amESE 2.9-----30.03- 76.8- 76.5---
2024-07-22 04:30 am SE 1.9-----30.03- 76.8- 76.5---
2024-07-22 04:15 am SE 1.9-----30.03- 76.6- 76.3---
2024-07-22 04:00 amSSE 1.9-----30.03-0.06 76.6- 76.3---
2024-07-22 03:45 amSSE 1.9-----30.03- 76.5- 75.9---
2024-07-22 03:30 amESE 1.9-----30.03- 76.3- 75.7---
2024-07-22 03:15 am E 1.9-----30.03- 76.1- 75.6---
2024-07-22 03:00 amESE 1.9-----30.03-0.06 76.3- 75.7---
2024-07-22 02:45 am E 1.9-----30.03- 76.3- 75.7---
2024-07-22 02:30 am E 1.9-----30.03- 76.6- 76.1---
2024-07-22 02:15 am E 1.9-----30.06- 76.6- 76.1---
2024-07-22 02:00 am N 1.9-----30.06-0.03 76.6- 76.1---
2024-07-22 01:45 amSSE 1.9-----30.06- 76.6- 76.1---
2024-07-22 01:30 amESE 1.9-----30.09- 76.8- 76.3---
2024-07-22 01:15 amESE 2.9-----30.09- 76.8- 76.3---
2024-07-22 01:00 am E 2.9-----30.09+0.00 76.8- 76.3---
2024-07-22 12:45 am E 1.9-----30.09- 76.8- 76.3---
2024-07-22 12:30 am E 2.9-----30.09- 76.8- 76.3---
2024-07-22 12:15 am NE 4.1-----30.09- 76.8- 76.3---
2024-07-22 12:00 am NE 4.1-----30.09+0.06 76.8- 76.3---
2024-07-21 11:45 pm NE 2.9-----30.09- 76.8- 76.3---
2024-07-21 11:30 pmNNE 2.9-----30.09- 76.8- 76.3---
2024-07-21 11:15 pmNNE 1.9-----30.09- 76.6- 76.1---
2024-07-21 11:00 pmNNE 1.9-----30.09+0.03 76.8- 76.3---
2024-07-21 10:45 pm NE 2.9-----30.09- 77.2- 76.6---
2024-07-21 10:30 pm NE 2.9-----30.09- 77.2- 76.6---
2024-07-21 10:15 pmENE 2.9-----30.09- 77.2- 76.6---
2024-07-21 10:00 pmENE 2.9-----30.09+0.06 77.2- 76.6---
2024-07-21 09:45 pmENE 2.9-----30.06- 77.2- 76.6---
2024-07-21 09:30 pmENE 2.9-----30.06- 77.2- 76.6---
2024-07-21 09:15 pmENE 1.9-----30.06- 77.2- 76.6---
2024-07-21 09:00 pmESE 1.0-----30.03+0.00 77.2- 76.6---